[[{"header":{"parameterUnit":"m.s-1","parameterCategory":1,"la1":30.2991,"la2":30.254,"lo1":-89.0895,"lo2":-89.0444,"dy":0.0017,"dx":0.0017,"nx":28,"ny":28,"refTime":"2024-10-11T03:00:00:Z","depth":0,"parameterNumber":2,"parameterNumberName":"U-component_of_WINDS"},"data":[0,0,0,0,0,0,0,0,0,0,0,0,0,0,0,0,0,0,0,0,0,0,0,0,0,0,0,0,0,0,0,0,0,0,0,0,0,0,0,0,0,0,0,0,0,0,0,0,0,0,0,0,0,0,0,0,0,0,-0.8669,-0.8668,0,-0.8598,-0.8597,-0.8596,-0.8543,-0.8543,-0.8542,-0.8542,-0.8468,-0.8466,-0.8465,0,0,0,0,0,0,0,0,0,0,0,0,0,-0.8759,-0.8757,-0.8669,-0.8668,-0.8667,-0.8598,-0.8597,-0.8596,-0.8543,-0.8543,-0.8542,-0.8542,-0.8468,-0.8466,-0.8464,0,0,0,0,0,0,0,0,0,0,0,0,0,-0.8707,-0.8757,-0.8669,-0.8633,-0.8629,-0.8598,-0.8597,-0.8596,-0.8544,-0.8543,-0.8542,-0.8542,-0.8469,-0.8466,-0.8464,-0.8464,0,0,-0.8457,-0.8456,0,0,0,0,0,0,0,0,-0.871,-0.8704,-0.8639,-0.8635,-0.8631,-0.8579,-0.8601,-0.8551,-0.8544,-0.8576,-0.8542,-0.8541,-0.8505,-0.85,-0.8488,-0.846,-0.8457,-0.8457,-0.8455,-0.8454,-0.8454,0,0,0,0,0,0,0,-0.8714,-0.8706,-0.8641,-0.8638,-0.8633,-0.862,-0.8612,-0.8592,-0.8545,-0.8573,-0.8569,-0.8561,-0.8503,-0.849,-0.8486,-0.8456,-0.8457,-0.8455,-0.8453,-0.8452,-0.8426,-0.8426,0,0,0,0,0,0,-0.8723,-0.871,-0.8643,-0.8638,-0.8669,-0.8619,-0.861,-0.8596,-0.8545,-0.8537,-0.8562,-0.8559,-0.8494,-0.8488,-0.8483,-0.848,-0.8454,-0.8452,-0.8451,-0.8425,-0.8426,-0.8427,0,0,0,0,0,0,-0.8725,-0.8717,-0.8646,-0.8673,-0.8663,-0.8618,-0.8603,-0.8595,-0.8582,-0.8537,-0.8528,-0.8558,-0.8494,-0.8486,-0.8469,-0.8477,-0.8451,-0.8449,-0.8424,-0.8425,-0.8426,-0.8474,0,0,0,0,0,0,-0.8728,-0.8719,-0.8718,-0.8673,-0.8662,-0.8634,-0.8603,-0.8594,-0.8579,-0.8574,-0.8531,-0.8523,-0.8493,-0.8473,-0.8467,-0.8473,-0.8447,-0.8423,-0.8425,-0.8426,-0.8471,-0.8476,-0.848,0,0,0,0,0,-0.8731,-0.8733,-0.8718,-0.871,-0.866,-0.8634,-0.8627,-0.8593,-0.858,-0.8579,-0.855,-0.8524,-0.8477,-0.8472,-0.8464,-0.847,-0.8423,-0.8424,-0.8426,-0.8469,-0.8475,-0.848,0,0,0,0,0,0,-0.8778,-0.8727,-0.8709,-0.8697,-0.8671,-0.8625,-0.8623,-0.86,-0.8576,-0.8573,-0.8531,-0.8522,-0.851,-0.8488,-0.8483,-0.8467,-0.8447,-0.8447,-0.8482,-0.8487,-0.8492,-0.8498,-0.8445,0,0,0,0,0,-0.8788,-0.8771,-0.8727,-0.872,-0.8708,-0.8668,-0.8655,-0.8631,-0.8602,-0.859,-0.856,-0.8532,-0.8511,-0.8498,-0.8476,-0.8468,-0.8458,-0.8468,-0.8473,-0.8477,-0.8477,-0.8473,-0.8477,-0.8432,-0.8432,-0.8432,0,0,-0.8806,-0.8776,-0.8768,-0.8729,-0.8706,-0.869,-0.8659,-0.8643,-0.8631,-0.8587,-0.857,-0.8547,-0.8514,-0.8502,-0.8495,-0.8483,-0.8488,-0.8479,-0.8482,-0.8481,-0.8475,-0.848,-0.8484,-0.8433,-0.8433,-0.8432,0,0,-0.8831,-0.8807,-0.8799,-0.8777,-0.8743,-0.8716,-0.8715,-0.8673,-0.8657,-0.8639,-0.8607,-0.8592,-0.8556,-0.8534,-0.8518,-0.8538,-0.8514,-0.8532,-0.8555,-0.8552,-0.8555,-0.8558,-0.8567,-0.857,-0.8532,-0.8532,-0.8532,0,-0.8858,-0.8834,-0.8798,-0.8785,-0.8769,-0.8731,-0.8723,-0.8703,-0.8663,-0.8653,-0.8641,-0.8597,-0.8571,-0.8554,-0.8559,-0.8547,-0.8545,-0.8536,-0.8558,-0.8561,-0.8563,-0.857,-0.8573,-0.8535,-0.8535,-0.8534,-0.8534,0,-0.8869,-0.8853,-0.8851,-0.8815,-0.8799,-0.8788,-0.8751,-0.8739,-0.8717,-0.8693,-0.8676,-0.8644,-0.8616,-0.861,-0.8588,-0.8591,-0.8585,-0.8566,-0.8544,-0.857,-0.8576,-0.8579,-0.8538,-0.8538,-0.8537,-0.8536,0,0,-0.8921,-0.8867,-0.8867,-0.8851,-0.8811,-0.8797,-0.8786,-0.8759,-0.875,-0.8724,-0.8714,-0.8686,-0.8669,-0.8651,-0.8626,-0.8623,-0.8642,-0.8604,-0.8603,-0.8613,-0.8645,-0.866,-0.8664,-0.8626,-0.8627,-0.8627,-0.8648,0,-0.8941,-0.8919,-0.8887,-0.8875,-0.886,-0.8825,-0.8815,-0.8789,-0.8766,-0.875,-0.8724,-0.8706,-0.8684,-0.8673,-0.8668,-0.8641,-0.8648,-0.8639,-0.8617,-0.8616,-0.8627,-0.8667,-0.8682,-0.8703,-0.865,-0.8651,-0.8651,0,-0.8961,-0.8939,-0.8926,-0.8889,-0.8881,-0.8873,-0.8847,-0.8832,-0.8803,-0.8787,-0.8768,-0.8741,-0.8728,-0.8709,-0.869,-0.8685,-0.8674,-0.8659,-0.8659,-0.8656,-0.8635,-0.8665,-0.8709,-0.8713,-0.8654,-0.8654,-0.8654,0,-0.9002,-0.8968,-0.8957,-0.8944,-0.89,-0.8895,-0.8877,-0.8847,-0.8834,-0.8811,-0.8802,-0.8778,-0.8765,-0.8747,-0.8715,-0.8704,-0.87,-0.8678,-0.8687,-0.8688,-0.8688,-0.8688,-0.8731,-0.868,-0.868,-0.868,-0.868,0,-0.9027,-0.9021,-0.8975,-0.8967,-0.896,-0.8924,-0.8917,-0.8895,-0.887,-0.8858,-0.8825,-0.8815,-0.8773,-0.8759,-0.8733,-0.8723,-0.8717,-0.8703,-0.8697,-0.8707,-0.8709,-0.8699,-0.8697,-0.8681,-0.8681,-0.868,-0.868,0,-0.9071,-0.904,-0.9025,-0.8986,-0.8976,-0.8972,-0.8938,-0.893,-0.8906,-0.8892,-0.8886,-0.8848,-0.8829,-0.8796,-0.8767,-0.875,-0.8745,-0.8733,-0.8755,-0.8751,-0.8762,-0.8762,-0.8801,-0.8805,-0.8751,-0.8751,-0.8752,0,-0.909,-0.9085,-0.9045,-0.9036,-0.9019,-0.9003,-0.899,-0.8955,-0.8942,-0.891,-0.8907,-0.8885,-0.8866,-0.8838,-0.8807,-0.8785,-0.8774,-0.8789,-0.877,-0.8781,-0.8775,-0.8776,-0.8776,-0.8793,-0.8794,-0.8795,-0.8795,0,-0.9127,-0.9112,-0.9094,-0.9072,-0.9057,-0.9038,-0.9016,-0.901,-0.897,-0.8958,-0.8939,-0.8924,-0.8896,-0.8875,-0.885,-0.883,-0.8807,-0.8802,-0.8803,-0.8813,-0.8826,-0.882,-0.8767,-0.8801,-0.88,-0.88,-0.8799,-0.8799,-0.9159,-0.9153,-0.9125,-0.9107,-0.9088,-0.9069,-0.9061,-0.9036,-0.9019,-0.8994,-0.8974,-0.8957,-0.893,-0.8893,-0.8876,-0.8862,-0.885,-0.8852,-0.8852,-0.8853,-0.8858,-0.8828,-0.8857,-0.8856,-0.8856,-0.8856,-0.8856,0,-0.9195,-0.9176,-0.916,-0.9132,-0.9118,-0.9097,-0.9073,-0.9063,-0.9048,-0.9025,-0.9008,-0.8987,-0.8967,-0.8936,-0.8915,-0.891,-0.8898,-0.8905,-0.8905,-0.8902,-0.8868,-0.887,-0.8915,-0.8915,-0.8915,-0.8915,-0.8915,-0.8915,-0.9212,-0.9202,-0.9184,-0.9164,-0.9145,-0.9128,-0.9117,-0.91,-0.9081,-0.9059,-0.9043,-0.9024,-0.8998,-0.8974,-0.8956,-0.8947,-0.8941,-0.8952,-0.894,-0.8909,-0.8904,-0.8899,-0.89,-0.8951,-0.8951,-0.8975,-0.8975,-0.8975]},{"header":{"parameterUnit":"m.s-1","parameterCategory":1,"la1":30.2991,"la2":30.254,"lo1":-89.0895,"lo2":-89.0444,"dy":0.0017,"dx":0.0017,"nx":28,"ny":28,"refTime":"2024-10-11T03:00:00:Z","depth":0,"parameterNumber":3,"parameterNumberName":"V-component_of_WINDS"},"data":[0,0,0,0,0,0,0,0,0,0,0,0,0,0,0,0,0,0,0,0,0,0,0,0,0,0,0,0,0,0,0,0,0,0,0,0,0,0,0,0,0,0,0,0,0,0,0,0,0,0,0,0,0,0,0,0,0,0,1.3043,1.3043,0,1.3003,1.3003,1.3002,1.2962,1.2961,1.2961,1.296,1.2918,1.2917,1.2916,0,0,0,0,0,0,0,0,0,0,0,0,0,1.3081,1.3081,1.3043,1.3043,1.3042,1.3003,1.3003,1.3002,1.2962,1.2961,1.2961,1.296,1.2918,1.2917,1.2916,0,0,0,0,0,0,0,0,0,0,0,0,0,1.3055,1.3081,1.3043,1.3018,1.3015,1.3003,1.3003,1.3002,1.2962,1.2961,1.2961,1.296,1.2918,1.2917,1.2916,1.2926,0,0,1.2913,1.2913,0,0,0,0,0,0,0,0,1.3057,1.3054,1.3022,1.3019,1.3016,1.2987,1.3,1.2977,1.2962,1.2982,1.296,1.2959,1.2941,1.2938,1.2932,1.2924,1.2923,1.2913,1.2913,1.2912,1.2912,0,0,0,0,0,0,0,1.3059,1.3055,1.3027,1.3021,1.3018,1.3007,1.3002,1.2996,1.2967,1.298,1.2977,1.2973,1.2939,1.2933,1.2931,1.2922,1.2913,1.2912,1.2912,1.2911,1.2916,1.2916,0,0,0,0,0,0,1.3065,1.3057,1.3029,1.3026,1.3035,1.3007,1.3002,1.2997,1.2967,1.2961,1.2974,1.2971,1.2936,1.2932,1.293,1.2936,1.2912,1.2911,1.2911,1.2915,1.2916,1.2917,0,0,0,0,0,0,1.3066,1.3063,1.303,1.3041,1.3036,1.3007,1.3002,1.2997,1.2991,1.2962,1.2956,1.2973,1.2935,1.2931,1.2927,1.2934,1.2911,1.291,1.2914,1.2915,1.2916,1.2952,0,0,0,0,0,0,1.3067,1.3063,1.3068,1.3041,1.3035,1.3029,1.3003,1.2996,1.2989,1.2986,1.296,1.2955,1.2934,1.2928,1.2926,1.2933,1.2909,1.2913,1.2915,1.2916,1.295,1.2954,1.2958,0,0,0,0,0,1.3069,1.308,1.3068,1.3065,1.3041,1.303,1.3026,1.3003,1.299,1.2993,1.2974,1.2955,1.2934,1.2928,1.2925,1.2932,1.2913,1.2914,1.2916,1.2948,1.2954,1.2958,0,0,0,0,0,0,1.3109,1.3076,1.3063,1.3067,1.3051,1.3023,1.3027,1.301,1.2997,1.2994,1.2965,1.2959,1.2958,1.2945,1.2938,1.2938,1.2921,1.2922,1.2947,1.2951,1.2955,1.2957,1.2908,0,0,0,0,0,1.3118,1.3113,1.3085,1.309,1.3083,1.3057,1.3051,1.3034,1.3017,1.301,1.2991,1.2974,1.2963,1.2957,1.2945,1.2948,1.294,1.2951,1.2955,1.2958,1.2959,1.2956,1.296,1.2922,1.2922,1.2922,0,0,1.3137,1.3119,1.3117,1.3098,1.3084,1.3077,1.3051,1.3047,1.3041,1.3009,1.3003,1.2988,1.2967,1.2966,1.2964,1.2955,1.2968,1.296,1.2963,1.2962,1.2958,1.2962,1.2965,1.2923,1.2923,1.2922,0,0,1.3168,1.3155,1.3156,1.3143,1.3122,1.3104,1.3104,1.3078,1.3067,1.3061,1.3035,1.3028,1.3011,1.2996,1.2986,1.3008,1.2989,1.3005,1.3025,1.3023,1.3025,1.3028,1.3033,1.3036,1.3006,1.3007,1.3007,0,1.3194,1.3184,1.316,1.3155,1.3146,1.3117,1.3117,1.3104,1.3081,1.3074,1.3064,1.304,1.3024,1.3017,1.3022,1.3016,1.3014,1.3008,1.3027,1.3029,1.3031,1.3036,1.3038,1.3008,1.3008,1.3008,1.3008,0,1.3215,1.3209,1.3213,1.319,1.3181,1.318,1.3153,1.3147,1.313,1.3112,1.3104,1.3084,1.3066,1.3064,1.3048,1.3053,1.3048,1.3033,1.3015,1.3037,1.3041,1.3043,1.3011,1.301,1.301,1.3009,0,0,1.3271,1.3233,1.3234,1.3222,1.3196,1.319,1.3186,1.3168,1.3162,1.3147,1.314,1.3125,1.3111,1.31,1.3081,1.3079,1.3094,1.3064,1.3063,1.3068,1.3096,1.3106,1.3108,1.3082,1.3082,1.3082,1.3097,0,1.3295,1.3286,1.3262,1.3259,1.3251,1.3222,1.3218,1.32,1.3183,1.3173,1.3153,1.3142,1.3125,1.3117,1.3114,1.3093,1.3099,1.3092,1.3074,1.3073,1.3078,1.3111,1.3122,1.3136,1.3098,1.3098,1.3099,0,1.3322,1.3307,1.3304,1.3275,1.3271,1.3268,1.3248,1.324,1.3218,1.3205,1.3192,1.3171,1.3162,1.3147,1.3133,1.3129,1.3119,1.3108,1.3108,1.3104,1.3086,1.3105,1.314,1.3142,1.3101,1.3101,1.3101,0,1.3359,1.3338,1.3333,1.3324,1.3291,1.3289,1.3275,1.3253,1.3243,1.3226,1.3219,1.3202,1.3191,1.3177,1.3151,1.3143,1.3139,1.3122,1.3127,1.3127,1.3126,1.3126,1.3158,1.3124,1.3124,1.3124,1.3124,0,1.3387,1.3385,1.3348,1.3345,1.3341,1.3313,1.331,1.3293,1.3273,1.3265,1.3239,1.3231,1.3198,1.3186,1.3166,1.3155,1.3152,1.314,1.3134,1.3141,1.3142,1.3133,1.3131,1.3124,1.3124,1.3124,1.3124,0,1.3427,1.3403,1.3394,1.3364,1.3356,1.3354,1.3327,1.3321,1.3302,1.3291,1.3287,1.3257,1.324,1.3213,1.319,1.3176,1.3169,1.316,1.3176,1.3172,1.3177,1.3176,1.3203,1.3204,1.3171,1.3172,1.3172,0,1.3445,1.3443,1.3412,1.3404,1.3391,1.338,1.3369,1.3342,1.3332,1.3305,1.3302,1.3284,1.3268,1.3243,1.3218,1.3199,1.3188,1.3199,1.3185,1.3191,1.3186,1.3185,1.3184,1.3202,1.3202,1.3203,1.3203,0,1.3479,1.3467,1.3454,1.3435,1.3424,1.3408,1.3391,1.3386,1.3353,1.3343,1.3326,1.3314,1.3289,1.327,1.3247,1.3231,1.3211,1.3208,1.3207,1.3214,1.3222,1.3215,1.3182,1.3207,1.3207,1.3206,1.3206,1.3206,1.3507,1.3503,1.348,1.3465,1.3449,1.3433,1.3425,1.3405,1.3391,1.3368,1.3352,1.3336,1.3312,1.3279,1.3264,1.3249,1.324,1.3241,1.324,1.324,1.3242,1.3226,1.3245,1.3245,1.3245,1.3245,1.3245,0,1.3537,1.3521,1.3508,1.3484,1.3472,1.3455,1.3435,1.3425,1.3411,1.3391,1.3375,1.3354,1.3336,1.3309,1.3287,1.3281,1.3271,1.3276,1.3275,1.3271,1.3252,1.3253,1.3284,1.3284,1.3284,1.3284,1.3284,1.3284,1.3552,1.3543,1.3527,1.3509,1.3492,1.3477,1.3466,1.345,1.3434,1.3412,1.3396,1.3379,1.3355,1.3332,1.3313,1.3305,1.3297,1.3305,1.3294,1.3277,1.3273,1.3269,1.327,1.3304,1.3304,1.3314,1.3314,1.3315]}]]